Regional Weather Roundup
Issued by NWS

Home | Current Version | Previous Version | Text Only | Print | Product List | Glossary On
Versions: 1 2 3 4 5 6 7 8 9 10 11 12 13 14 15 16 17 18 19 20 21 22 23 24 25 26 27 28 29 30 31 32 33 34 35 36 37 38 39 40 41 42 43 44 45 46 47 48
000
ASUS42 KFFC 280603
RWRGA
WEATHER ROUNDUP FOR GEORGIA
NATIONAL WEATHER SERVICE PEACHTREE CITY GA
100 AM EST SUN DEC 28 2014

NOTE: "FAIR" INDICATES FEW OR NO CLOUDS BELOW 12,000 FEET WITH NO
SIGNIFICANT WEATHER AND/OR OBSTRUCTIONS TO VISIBILITY.

* = USE WITH CAUTION. THE STATIONS MARKED WITH AN ASTERISK MAY NOT
REPORT WEATHER SUCH AS PRECIPITATION, FOG, OR THUNDER AND ARE NOT
QUALITY CONTROLLED BY NWS.

THE REMARK "TC" DENOTES TEMPERATURE READING IN DEGREES CELSIUS.

GAZ001>058-280700-
NORTH GEORGIA

CITY           SKY/WX    TMP DP  RH WIND       PRES   REMARKS
ATLANTA        RAIN      54  51  90 CALM      30.17R FOG
6HR MIN TEMP:  54; 6HR MAX TEMP:  56; 6HR PCP:  0.06;

ATHENS         CLOUDY    51  48  89 S3        30.15F
6HR MIN TEMP:  51; 6HR MAX TEMP:  57; 6HR PCP: TRACE;

CHAMBLEE       RAIN      52  51  97 CALM      30.16S FOG
6HR MIN TEMP:  51; 6HR MAX TEMP:  53; 6HR PCP:  0.18;

PEACHTREE CITY LGT RAIN  53  51  93 N6        30.16F FOG
6HR MIN TEMP:  51; 6HR MAX TEMP:  55; 6HR PCP:  0.04;

ROME           RAIN      50  50 100 N5        30.15S FOG
6HR MIN TEMP:  49; 6HR MAX TEMP:  53; 6HR PCP:  0.15;

WEST ATLANTA   RAIN      52  51  97 SE5       30.16F FOG
6HR MIN TEMP:  51; 6HR MAX TEMP:  54; 6HR PCP:  0.26;

GAINESVILLE    LGT RAIN  50  47  89 W3        30.19S
6HR MIN TEMP:  49; 6HR MAX TEMP:  56; 6HR PCP:  0.03;

CARTERSVILLE   LGT RAIN  51  49  92 NE3       30.14F
6HR MIN TEMP:  50; 6HR MAX TEMP:  54; 6HR PCP:  0.04;



CITY           SKY/WX    TMP DP  RH WIND       PRES   REMARKS
DALTON*        RAIN      50  50 100 CALM      30.17R
MARIETTA       LGT RAIN  52  52  99 E2        30.15F
$$

GAZ059>098-102>109-280700-
CENTRAL GEORGIA

CITY           SKY/WX    TMP DP  RH WIND       PRES   REMARKS
AUGUSTA-BUSH   CLOUDY    52  50  93 CALM      30.18F
6HR MIN TEMP:  49; 6HR MAX TEMP:  53; 6HR PCP:  0.04;

AUGUSTA-DANIEL CLOUDY    57  52  83 S3        30.18F
6HR MIN TEMP:  55; 6HR MAX TEMP:  60; 6HR PCP:  0.01;

COLUMBUS       CLOUDY    53  52  96 CALM      30.13F
6HR MIN TEMP:  52; 6HR MAX TEMP:  56; 6HR PCP:  0.44;

MACON          CLOUDY    56  56 100 S3        30.14F
6HR MIN TEMP:  55; 6HR MAX TEMP:  60; 6HR PCP:  0.10;

ROBINS AFB     CLOUDY    56  56  99 SE6       30.14F


CITY           SKY/WX    TMP DP  RH WIND       PRES   REMARKS
LAGRANGE*      LGT RAIN  56  56  98 CALM      30.13F
SYLVANIA*      CLOUDY    56  55  95 CALM      30.20F
MILLEDGEVILLE* LGT RAIN  54  54 100 CALM      30.13F
$$

GAZ099>101-110>166-280700-
SOUTH GEORGIA

CITY           SKY/WX    TMP DP  RH WIND       PRES   REMARKS
SAVANNAH       PTCLDY    52  48  86 CALM      30.20F
6HR MIN TEMP:  51; 6HR MAX TEMP:  60;

VALDOSTA       CLEAR     56  55  97 SE3       30.17F
6HR MIN TEMP:  53; 6HR MAX TEMP:  61;

ALMA           PTCLDY    54  53  97 SE5       30.18F
6HR MIN TEMP:  54; 6HR MAX TEMP:  63;

ST SIMONS      CLEAR     59  57  93 CALM      30.19F
6HR MIN TEMP:  56; 6HR MAX TEMP:  60;

FT STEWART     MOCLDY    53  50  90 CALM      30.18F
ALBANY         CLOUDY    61  55  81 CALM      30.18F
HUNTER AFB     PTCLDY    51  49  95 SE2       30.17F
MOODY AFB      CLEAR     58  56  95 SE3       30.17F
BRUNSWICK      CLEAR     54  52  94 CALM      30.20F


CITY           SKY/WX    TMP DP  RH WIND       PRES   REMARKS
BAINBRIDGE*    CLEAR     59  55  88 CALM      30.18F
MOULTRIE*      PTCLDY    59  57  94 CALM      30.18S
VIDALIA*       CLOUDY    59  55  88 CALM      30.18F
WAYCROSS*      PTCLDY    56  56  99 CALM      30.18F
DOUGLAS*       PTCLDY    59  55  88 CALM      30.19F
$$


USA.gov is the U.S. government's official web portal to all federal, state and local government web resources and services.